Regional Weather Roundup
Issued by NWS

Home | Current Version | Previous Version | Text Only | Print | Product List | Glossary Off
Versions: 1 2 3 4 5 6 7 8 9 10 11 12 13 14 15 16 17 18 19 20 21 22 23 24 25 26 27 28 29 30 31 32 33 34 35 36 37 38 39 40 41 42 43 44 45 46 47 48 49 50

000
ASUS43 KMKX 280421
RWRWI

WISCONSIN REGIONAL WEATHER ROUNDUP
NATIONAL WEATHER SERVICE MILWAUKEE/SULLIVAN WI
1100 PM CDT THU JUL 27 2017

NOTE: "FAIR" INDICATES FEW OR NO CLOUDS BELOW 12,000 FEET WITH NO
SIGNIFICANT WEATHER AND/OR OBSTRUCTIONS TO VISIBILITY.

WIZ001-002-006>008-014>016-023>028-280500-
NORTHWEST WISCONSIN

CITY           SKY/WX    TMP DP  RH WIND       PRES   REMARKS
SUPERIOR ARPT  NOT AVBL
ASHLAND        PTCLDY    57  56  96 SW3       30.09R
HAYWARD        CLEAR     58  56  93 NE3       30.08R
SIREN          CLEAR     62  58  86 CALM      30.06F
CUMBERLAND     CLEAR     64  57  77 N3        30.07F
RICE LAKE      CLEAR     65  58  78 CALM      30.07F
CHETEK         CLEAR     69  59  69 MISG      30.05F
LADYSMITH      CLEAR     66  59  79 NE5       30.07F
EAU CLAIRE     CLEAR     69  61  75 N3        30.02S
MENOMONIE      CLEAR     68  62  82 N5        30.04S
NEW RICHMOND   CLEAR     65  60  82 NE3       30.06S
OSCEOLA        MOCLDY    66  62  85 CALM      30.08S
$$

WIZ003>005-009-010-017-018-280500-
NORTH CENTRAL WISCONSIN

CITY           SKY/WX    TMP DP  RH WIND       PRES   REMARKS
MANITOWISH WTR CLEAR     56  56 100 CALM      30.09S
ARBOR VITAE    CLEAR     64  56  77 CALM      30.09S
WOODRUFF       CLEAR     64  56  77 CALM      30.09S
RHINELANDER    CLEAR     62  58  86 NE3       30.09S
EAGLE RIVER    CLEAR     57  52  84 CALM      30.09S
LAND O LAKES   CLEAR     54  53  97 CALM      30.11S
PHILLIPS       CLEAR     60  60 100 CALM      30.07S
TOMAHAWK         N/A     60  56  85 CALM      30.08S
MEDFORD        CLEAR     64  59  84 E3        30.06S
MERRILL        PTCLDY    64  61  88 CALM      30.07S
$$

WIZ029-030-035-036-043>047-280500-
CENTRAL WISCONSIN

CITY           SKY/WX    TMP DP  RH WIND       PRES   REMARKS
WAUSAU         CLOUDY    66  60  81 E9        30.04R
MOSINEE        MOCLDY    66  61  82 NE9       30.07R
MARSHFIELD     LGT RAIN  67  62  84 SE5       30.04R
STEVENS POINT  CLEAR     66  62  87 NE6       30.04S
WAUPACA        PTCLDY    70  59  67 E5        30.03S
WAUTOMA        PTCLDY    63  61  93 CALM      30.03R
WISC RAPIDS    CLOUDY    66  62  87 SE3       30.03S
CAMP DOUGLAS   PTCLDY    63  63 100 CALM      30.02R
$$

WIZ011>013-019>022-031-037>040-048>050-280500-
NORTHEAST WISCONSIN

CITY           SKY/WX    TMP DP  RH WIND       PRES   REMARKS
ANTIGO         CLOUDY    64  60  88 CALM      30.07S
SHAWANO        CLOUDY    70  58  66 E7        30.05R
OCONTO         CLEAR     61  57  86 CALM      30.03S
STURGEON BAY     N/A     64  55  72 NE6       30.03S
GREEN BAY      CLOUDY    67  59  75 E3        30.02S
MANITOWOC      CLEAR     67  57  70 N3        30.03R
APPLETON       MOCLDY    70  52  52 E9        30.02R
CLINTONVILLE   CLOUDY   N/A N/A N/A CALM      30.05R
OSHKOSH        PTCLDY    71  55  56 E10G21    30.02R
$$

WIZ032>034-041-042-053>061-280500-
SOUTHWEST WISCONSIN

CITY           SKY/WX    TMP DP  RH WIND       PRES   REMARKS
LA CROSSE      MOCLDY    75  65  70 NW5       30.00R
SPARTA         PTCLDY    64  63  97 CALM      30.03R
VIROQUA        PTCLDY    67  65  93 E3        30.03S
BOSCOBEL       MOCLDY    67  65  93 CALM      30.00R
PRAIRIE DU CHI PTCLDY    69  65  87 CALM      29.99S
PLATTEVILLE    CLEAR     70  66  88 NE7       30.01S
$$

WIZ056-057-062-063-064-067-068-280500-
SOUTH CENTRAL WISCONSIN

CITY           SKY/WX    TMP DP  RH WIND       PRES   REMARKS
REEDSBURG      CLEAR     65  64  96 CALM      30.02R
BARABOO/DELLS  CLEAR     64  61  88 CALM      30.02S
LONE ROCK      CLEAR     67  66  97 CALM      30.01R
MINERAL POINT  CLEAR     70  64  83 E3        30.03R
MADISON        PTCLDY    64  59  83 CALM      30.01R
MIDDLETON      CLEAR     64  64 100 CALM      30.02R
WATERTOWN      CLEAR     65  59  80 N3        30.00S
MONROE         CLEAR     66  55  68 NE6       30.00S
JANESVILLE     CLEAR     68  54  60 NE5       29.99R
$$

WIZ051-052-058>065-066-070>072-280500-
SOUTHEAST WISCONSIN

CITY           SKY/WX    TMP DP  RH WIND       PRES   REMARKS
MILWAUKEE      PTCLDY    70  61  73 N13       29.97S
WAUKESHA       CLEAR     63  54  72 N5        30.01R
MILWAUKEE/TIMM PTCLDY    66  52  59 N7        30.00R
RACINE         CLEAR     68  63  84 N10       29.98S
KENOSHA        CLEAR     68  59  73 NE7       29.97S
FOND DU LAC    CLEAR     69  54  58 NE9       30.02R
SHEBOYGAN      CLEAR     65  60  84 N9        30.00S
WEST BEND      PTCLDY    64  59  82 NE5       30.01R
JUNEAU         CLEAR     65  58  75 NE5       30.02S
$$

LSZ147-162-280500-
LAKE SUPERIOR

STATION/POSITION TIME  TEMP    WIND        PRES    WAVE
                       AIR SEA DIR/SP/G            HT/PER
                 (UTC) (F)     (DEG/KT/KT) (MB)    (FT/S)
W MID LAKE BUOY  0350   57 54  350/  4/  6 1018.4R   0
DEVILS ISLAND    0400   63      70/  6/  6 1018.6S
PORT WING        0252   64     100/  2/ 14 1018.6R
SAXON HARBOR     0340   63     170/  3/  5 1017.9S
$$

LMZ867-665-643>646-280500-
LAKE MICHIGAN

STATION/POSITION TIME  TEMP    WIND        PRES    WAVE
                       AIR SEA DIR/SP/G            HT/PER
                 (UTC) (F)     (DEG/KT/KT) (MB)    (FT/S)
CHAMBERS ISLAND  0340   67      10/ 15/ 18 1016.3S
S GREEN BAY BUOY 0400   71 72   40/ 14/ 16 1016.4
N MID LAKE BUOY  0350   65 66   30/ 12/ 14 1016.8S   2/ 4
NORTHPORT PIER   0340   66      10/  7/ 11 1016.6S
KEWAUNEE LAKESHO 0400   66     360/  3/  5 1015.9
SHEBOYGAN LAKESH 0400   69      10/ 17/ 19 1015.5R
PORT WASHINGTON  0330   69     360/  4/ 12 1016.3S
ATWATER BUOY     0309   70 69   10/ 14/ 17 1015.1R
MILWAUKEE LAKESH 0400   70     360/ 14/ 17   N/A
S MID LAKE BUOY  0350   72 71   30/ 14/ 17 1013.5R   4/ 6
KENOSHA   LAKESH 0400   71      10/ 15/ 17 1014.2
$$

TC  - TEMPERATURE IN CELSIUS
VSB - VISIBILITY IN STATUTE MILES
WCI - WIND CHILL INDEX
HX  - HEAT INDEX





USA.gov is the U.S. government's official web portal to all federal, state and local government web resources and services.